Location: Unspecified
(0.0000°N, 0.0000°E)
Time: 01:04:36
(UTC+00:00)

CZ-3B DEB - Pass Details

Date: 19 February 2026
Orbit: 1033 x 41494 km, 26.9° (Epoch: 29 July)

Event Time Altitude Azimuth Distance (km) Brightness Sun altitude
Rises 15:16:02 0° 109° (ESE) 45,706 ? 43.4°
Reaches altitude 10° 16:25:03 10° 107° (ESE) 46,778 ? 26.6°
Maximum altitude 21:18:28 48° 89° (E) 26,918 ? -45.1°
Enters shadow 21:28:11 48° 87° (E) 25,485 ? -47.4°
Exits shadow 22:39:24 22° 69° (ENE) 13,620 ? -64.1°
Drops below altitude 10° 22:49:11 10° 67° (ENE) 12,251 ? -66.3°
Sets 22:55:27 0° 66° (ENE) 11,600 ? -67.6°
